Weather History for Astoria, OR

Change the Weather History Date:

Tuesday, March 11, 2014

  Actual Average Record
Temperature  
Mean Temperature 45 °F 46 °F  
Max Temperature 55 °F 54 °F 72 °F (1934)
Min Temperature 34 °F 39 °F 28 °F (1956)
Degree Days  
Heating Degree Days 20 19  
Month to date heating degree days 173 214  
Since 1 July heating degree days 3602 3556  
Cooling Degree Days 0 0  
Month to date cooling degree days 0 0  
Year to date cooling degree days 0 0  
Moisture  
Dew Point 38 °F    
Average Humidity 80    
Maximum Humidity 100    
Minimum Humidity 59    
Precipitation  
Precipitation 0.00 in 0.23 in 1.41 in (2010)
Month to date precipitation 5.36 2.75  
Year to date precipitation 19.12 20.14  
Sea Level Pressure  
Sea Level Pressure 30.51 in    
Wind  
Wind Speed 5 mph (East)    
Max Wind Speed 14 mph    
Max Gust Speed 17 mph    
Visibility 7 miles    
Events Fog    
T = Trace of Precipitation, MM = Missing Value Source: NWS Daily Summary

Daily Weather History Graph

Daily Weather History Graph

Search for Another Location

Airport:

Trip Planner

Search our weather history database for the weather conditions in past years. The results will help you decide how hot, cold, wet, or windy it might be!

Date:

Astronomy

Mar. 11, 2014 Rise Set
Actual Time 7:35 AM PDT 7:16 PM PDT
Civil Twilight 7:05 AM PDT 7:45 PM PDT
Nautical Twilight 6:31 AM PDT 8:20 PM PDT
Astronomical Twilight 5:55 AM PDT 8:56 PM PDT
Moon 2:46 PM PDT (3/11) 4:45 AM PDT (3/11)
Length of Visible Light 12h 40m
Length of Day
11h 40m
Waxing Gibbous, 79% of the Moon is Illuminated
Mar 11
Waxing Gibbous
Mar 16
Full
Mar 23
Last Quarter
Mar 30
New
Apr 7
First Quarter

Hourly Weather History & Observations

Time (PDT) Temp. Windchill Dew Point Humidity Pressure Visibility Wind Dir Wind Speed Gust Speed Precip Events Conditions
12:55 AM 37.9 °F 34.4 °F 36.0 °F 93% 30.51 in 10.0 mi ESE 4.6 mph - N/A   Partly Cloudy
1:55 AM 37.9 °F 34.4 °F 36.0 °F 93% 30.52 in 10.0 mi SSE 4.6 mph - N/A   Clear
2:55 AM 37.0 °F 34.5 °F 36.0 °F 96% 30.53 in 10.0 mi SE 3.5 mph - N/A   Mostly Cloudy
3:31 AM 37.0 °F 34.5 °F 36.0 °F 96% 30.54 in 10.0 mi SE 3.5 mph - N/A   Scattered Clouds
3:55 AM 37.0 °F 34.5 °F 35.1 °F 93% 30.54 in 10.0 mi ESE 3.5 mph - N/A   Partly Cloudy
4:55 AM 36.0 °F 32.1 °F 34.0 °F 93% 30.54 in 10.0 mi SE 4.6 mph - N/A   Clear
5:55 AM 35.1 °F - 34.0 °F 96% 30.55 in 10.0 mi Calm Calm - N/A   Clear
6:30 AM 35.1 °F - 32.0 °F 89% 30.55 in 10.0 mi Calm Calm - N/A   Scattered Clouds
6:38 AM 34.0 °F 31.0 °F 33.1 °F 96% 30.55 in 2.5 mi ESE 3.5 mph - N/A   Mostly Cloudy
6:40 AM 34.0 °F - 33.1 °F 96% 30.55 in 1.2 mi Calm Calm - N/A   Mostly Cloudy
6:45 AM 35.1 °F - 33.1 °F 92% 30.55 in 0.2 mi Calm Calm - N/A Fog Fog
6:55 AM 35.1 °F 31.0 °F 34.0 °F 96% 30.55 in 0.2 mi SE 4.6 mph - N/A Fog Fog
7:35 AM 35.1 °F 30.1 °F 33.1 °F 92% 30.56 in 1.0 mi SE 5.8 mph - N/A   Mist
7:48 AM 35.1 °F 31.0 °F 34.0 °F 96% 30.56 in 0.2 mi SE 4.6 mph - N/A Fog Fog
7:55 AM 36.0 °F 32.1 °F 35.1 °F 97% 30.56 in 0.2 mi SE 4.6 mph - N/A Fog Fog
8:17 AM 36.0 °F 33.3 °F 36.0 °F 100% 30.56 in 0.2 mi ESE 3.5 mph - N/A Fog Fog
8:55 AM 37.9 °F 35.5 °F 37.0 °F 97% 30.56 in 0.2 mi East 3.5 mph - N/A Fog Fog
9:55 AM 39.9 °F - 39.0 °F 97% 30.56 in 0.2 mi Calm Calm - N/A Fog Fog
10:10 AM 39.9 °F - 39.9 °F 100% 30.57 in 0.2 mi Calm Calm - N/A Fog Fog
10:38 AM 41.0 °F - 39.0 °F 93% 30.57 in 1.2 mi Calm Calm - N/A   Overcast
10:40 AM 41.0 °F - 39.0 °F 93% 30.56 in 2.5 mi Calm Calm - N/A   Overcast
10:47 AM 41.0 °F - 39.9 °F 96% 30.56 in 4.0 mi Calm Calm - N/A   Overcast
10:55 AM 41.0 °F - 39.9 °F 96% 30.56 in 9.0 mi Calm Calm - N/A   Overcast
11:36 AM 46.0 °F 44.8 °F 42.1 °F 86% 30.55 in 10.0 mi ENE 3.5 mph - N/A   Partly Cloudy
11:55 AM 46.9 °F - 41.0 °F 80% 30.55 in 10.0 mi NE 4.6 mph - N/A   Clear
12:55 PM 48.9 °F - 39.9 °F 71% 30.53 in 10.0 mi North 9.2 mph - N/A   Clear
1:55 PM 52.0 °F - 39.9 °F 63% 30.51 in 10.0 mi NNE 11.5 mph - N/A   Clear
2:55 PM 54.0 °F - 41.0 °F 62% 30.48 in 10.0 mi North 9.2 mph - N/A   Clear
3:55 PM 54.0 °F - 42.1 °F 64% 30.46 in 10.0 mi North 9.2 mph - N/A   Clear
4:55 PM 55.0 °F - 41.0 °F 59% 30.44 in 10.0 mi NNW 8.1 mph - N/A   Clear
5:55 PM 54.0 °F - 43.0 °F 66% 30.42 in 10.0 mi NNW 8.1 mph - N/A   Clear
6:55 PM 51.1 °F - 43.0 °F 74% 30.42 in 10.0 mi NNW 3.5 mph - N/A   Clear
7:55 PM 51.1 °F - 39.9 °F 66% 30.42 in 10.0 mi North 5.8 mph - N/A   Clear
8:55 PM 46.0 °F 42.5 °F 39.9 °F 79% 30.41 in 10.0 mi East 6.9 mph - N/A   Clear
9:55 PM 44.1 °F 40.8 °F 39.0 °F 82% 30.40 in 10.0 mi East 5.8 mph - N/A   Clear
10:55 PM 41.0 °F - 37.0 °F 86% 30.39 in 10.0 mi Calm Calm - N/A   Clear
11:55 PM 43.0 °F - 37.9 °F 82% 30.38 in 10.0 mi Calm Calm - N/A   Clear